Flag for U.S.A. Weather past 2 weeks in Fairfax, Virginia, U.S.A.

Now
43 °F

Fog.


Feels Like: 43 °F
Forecast: 49 / 65 °F
Wind: No wind

Location: Washington-Dulles International Airport

Current Time: Oct 21, 2014 at 8:29:13 AM

Latest Report: Oct 21, 2014 at 7:57 AM


Visibility: 6 mi

Pressure: 29.87 "Hg

Humidity: 100%

Dew point: 43 °F

Location of FairfaxLocation

Historic Weather in Fairfax — Graph

°F

Fairfax temperature yesterday

Maximum temperature yesterday: 65 °F (at 3:52 PM)
Minimum temperature yesterday: 36 °F (at 4:52 AM)
Average temperature yesterday: 51 °F

Past Weeks' High & Low Weather Summary

 TemperatureHumidityPressure
High78 °F (Oct 14, 1:52 PM)100% (Oct 7, 10:00 PM)30.29 "Hg (Oct 7, 10:00 PM)
Low36 °F (Oct 20, 4:52 AM)32% (Oct 8, 4:52 PM)29.63 "Hg (Oct 18, 4:52 AM)
Average59 °F77%29.98 "Hg
* Reported Oct 6 6:52 AM — Oct 21 6:52 AM, Fairfax, Weather by CustomWeather, © 2014

Note: Actual official high and low records may vary slightly from our data, if they occured in-between our weather recording intervals... More about our weather records

Advertising

Fairfax weather history for previous 24 hours

 ConditionsComfort  
Time TempWeatherWind HumidityBarometerVisibility
6:52 AM
Oct 21
45 °FFog.No wind97%29.86 "Hg5 mi
5:52 AM48 °FPassing clouds.No wind93%29.86 "Hg10 mi
4:52 AM47 °FPassing clouds.3 mph93%29.85 "Hg10 mi
3:52 AM49 °FPassing clouds.No wind93%29.87 "Hg10 mi
2:52 AM53 °FPassing clouds.3 mph83%29.88 "Hg10 mi
1:52 AM54 °FPassing clouds.6 mph77%29.89 "Hg10 mi
12:52 AM54 °FPartly cloudy.5 mph80%29.91 "Hg10 mi
11:52 PM
Oct 20
55 °FLight rain. Mostly cloudy.7 mph80%29.93 "Hg10 mi
10:52 PM56 °FLight rain. Overcast.13 mph75%29.94 "Hg9 mi
9:52 PM58 °FOvercast.6 mph67%29.96 "Hg10 mi
8:52 PM57 °FOvercast.No wind69%29.95 "Hg10 mi
7:52 PM57 °FPartly cloudy.3 mph69%29.96 "Hg10 mi
6:52 PM58 °FBroken clouds.6 mph67%29.94 "Hg10 mi
5:52 PM61 °FBroken clouds.5 mph58%29.94 "Hg10 mi
4:52 PM63 °FBroken clouds.8 mph52%29.94 "Hg10 mi
3:52 PM65 °FPartly sunny.8 mph49%29.94 "Hg10 mi
2:52 PM64 °FPartly sunny.9 mph50%29.96 "Hg10 mi
1:52 PM63 °FPartly sunny.10 mph50%29.97 "Hg10 mi
12:52 PM62 °FPartly sunny.12 mph50%30.01 "Hg10 mi
10:56 AM55 °FPartly sunny.6 mph51%30.09 "Hg10 mi
9:52 AM50 °FPartly sunny.6 mph63%30.11 "Hg10 mi
8:52 AM45 °FPartly sunny.3 mph80%30.13 "Hg10 mi
Weather by CustomWeather, © 2014

See weather overviewHow to use our weather pages